Temperature
20 19 20 19 19 19 19 19 19 19 19 19 19 19 19 19 19 19 19 19 19 19 19 19 19 19 19 19 19 19 19 19 19 19 18 18 18 18 18 18 18 17 18
20 19 20 19 19 19 19 19 19 19 19 19 19 19 19 19 19 19 19 19 19 19 19 19 19 19 19 19 19 19 19 19 19 18 18 18 18 18 18 18 18 17 18
19 19 19 19 19 19 19 19 19 19 19 19 19 19 19 19 19 19 19 19 19 19 19 19 19 19 19 19 19 18 18 18 18 18 18 17 18 18 18 18 18 18 18
19 19 19 19 19 19 19 19 19 19 19 19 19 19 19 19 19 19 19 19 19 19 19 19 19 19 18 18 18 18 18 18 18 18 18 18 17 18 18 18 18 18 18
19 19 19 19 19 19 19 19 19 19 19 19 19 19 19 19 19 19 19 19 19 19 19 19 19 18 18 18 18 18 18 18 18 18 18 17 17 18 18 18 18 18 18
19 19 19 19 19 19 19 19 19 19 19 19 19 19 19 19 19 19 19 19 19 19 19 19 18 18 18 18 18 18 18 18 18 18 17 17 17 18 18 18 18 18 18
20 19 19 19 19 19 19 19 19 19 19 19 19 19 19 19 19 19 19 19 19 18 18 18 18 18 18 18 18 18 18 18 18 18 17 17 17 18 18 18 18 17 17
20 19 19 20 19 19 19 19 19 19 19 19 19 19 19 19 19 19 19 19 19 18 18 18 18 18 18 18 18 18 18 18 18 18 18 18 18 18 18 18 18 17 17
20 19 19 19 19 19 19 19 19 19 19 19 19 19 19 19 19 19 19 19 19 18 18 18 18 18 18 18 18 18 18 18 18 18 18 18 18 18 18 18 18 17 17
20 19 19 19 19 19 19 19 19 19 19 19 19 19 19 19 19 19 18 18 19 18 18 18 18 18 18 18 18 18 18 18 18 18 18 18 18 18 18 18 18 17 17
19 19 19 19 19 19 19 19 19 19 19 19 19 19 18 18 18 18 18 18 18 18 18 18 18 18 18 18 18 18 18 18 19 18 18 18 18 18 18 18 18 18 17
20 19 19 19 19 19 19 19 18 18 18 18 18 18 18 18 18 18 18 18 18 18 18 18 18 18 18 18 18 18 18 18 19 19 18 18 18 18 18 18 18 18 18
20 19 19 19 19 19 19 19 18 18 18 18 18 18 18 18 18 18 18 18 18 18 18 18 18 18 18 18 18 18 18 19 19 19 19 18 18 18 18 18 18 18 18
20 19 19 19 19 19 19 19 18 18 18 18 18 18 18 18 18 18 18 18 18 18 18 18 18 18 18 18 18 18 18 18 19 19 18 18 18 18 18 18 18 18 18
20 19 19 19 19 19 19 19 19 18 18 18 18 18 18 18 18 18 18 18 18 18 18 18 18 18 18 18 18 18 18 18 18 18 18 18 18 18 18 18 18 18 18
20 19 19 19 19 19 19 19 18 18 18 18 18 18 18 18 18 18 18 18 18 18 18 18 18 18 18 18 18 18 18 18 18 18 18 18 18 18 18 18 18 18 18
19 19 19 19 19 19 19 19 19 18 18 18 18 18 18 18 18 18 18 18 18 18 18 18 18 18 18 18 18 18 18 18 18 18 18 18 18 18 18 18 18 18 18
19 19 19 19 19 19 19 19 19 19 18 18 18 18 18 18 18 18 18 18 18 18 18 18 18 18 18 18 18 18 18 18 18 18 18 18 18 18 18 18 18 18 18
19 19 19 19 19 19 19 19 18 18 18 18 18 18 18 18 18 18 18 18 18 18 18 18 18 18 18 18 18 18 18 18 18 18 18 18 18 18 18 18 18 18 18
19 19 19 19 19 19 19 19 18 18 18 18 18 18 18 18 18 18 18 18 18 18 18 18 18 18 18 18 18 18 18 18 18 18 18 18 18 18 18 18 18 18 18
20 19 19 19 19 19 19 18 18 18 18 18 18 18 18 18 18 18 18 18 18 18 18 18 18 18 18 18 18 18 18 18 18 18 18 18 18 18 18 18 17 17 17
20 20 19 19 19 19 19 19 18 18 18 18 18 18 18 18 18 18 18 18 18 18 18 18 18 17 18 18 18 18 19 19 18 18 18 18 18 18 18 18 17 17 17
20 20 19 19 19 19 19 18 18 18 18 18 18 18 18 18 18 18 18 18 18 18 18 18 18 17 18 18 17 18 18 19 19 19 18 18 18 18 18 18 17 17 17
20 20 20 19 19 19 19 19 18 18 18 18 18 18 18 18 18 18 18 18 18 18 17 17 17 17 17 17 17 17 17 18 18 18 18 18 18 17 17 18 18 17 17
20 20 19 19 19 19 19 19 19 18 18 18 18 18 18 18 18 17 17 17 17 17 17 17 17 17 17 17 17 17 17 17 17 18 18 18 18 18 17 17 17 17 17
20 20 20 19 19 19 19 19 19 19 18 18 18 18 18 18 17 17 17 17 17 17 17 17 17 17 17 17 17 17 17 17 17 17 18 18 18 18 17 17 17 17 17
Wind_Speed
5 8 11 10 11 11 12 14 15 15 16 16 16 17 17 17 16 16 16 16 15 15 14 14 14 13 13 12 13 13 13 12 12 13 12 12 11 11 11 11 10 11 13
7 9 11 11 12 12 13 14 15 15 15 16 16 16 17 16 16 15 15 14 14 14 13 13 13 13 12 12 12 12 12 11 12 12 12 11 10 10 9 7 5 10 12
9 10 11 13 12 12 13 14 14 15 15 15 16 16 16 16 15 14 14 13 13 13 13 12 12 12 12 11 11 11 11 10 11 11 10 10 11 9 9 8 9 10 10
10 10 12 15 13 12 13 13 14 14 15 15 15 16 15 15 15 14 13 13 13 12 12 12 12 11 11 10 10 10 10 10 10 10 8 7 9 11 9 9 9 9 9
10 10 13 13 12 12 12 13 13 14 14 15 15 15 14 14 14 13 12 12 12 12 11 11 11 10 10 9 9 9 9 9 8 7 6 6 7 10 9 9 8 8 9
10 10 13 12 12 12 11 12 13 13 14 14 14 14 13 13 13 13 12 12 11 11 10 9 9 9 8 8 8 8 8 8 8 6 6 6 7 10 9 8 8 8 8
9 10 13 12 12 12 11 12 12 13 13 13 13 13 13 12 12 12 11 11 11 10 9 8 8 8 7 7 7 7 7 6 5 6 6 6 7 10 9 8 8 8 8
9 10 12 12 11 11 12 11 12 12 12 12 12 11 11 11 10 10 9 10 10 9 9 8 7 7 7 6 7 7 6 7 5 5 5 6 9 9 9 9 9 9 9
8 8 9 11 11 11 11 10 10 11 11 11 11 10 10 9 8 8 8 8 8 8 8 8 7 6 6 7 7 7 6 7 5 4 5 6 10 9 9 9 9 10 9
7 7 8 8 8 9 11 10 10 10 10 10 10 9 8 8 8 8 8 7 7 8 8 8 7 7 6 7 7 7 8 9 5 5 5 8 11 9 9 10 10 10 10
7 6 6 7 7 7 8 10 10 10 9 9 9 9 7 6 6 7 6 6 7 7 7 7 8 8 8 9 9 9 10 6 4 3 3 9 9 9 9 10 10 10 10
7 6 5 5 5 6 6 7 6 7 7 6 6 6 5 4 3 4 6 6 7 7 8 9 8 10 10 7 10 11 7 5 4 4 5 9 8 8 9 10 10 10 10
7 6 6 5 5 5 4 4 4 4 5 5 5 4 4 3 3 3 3 5 6 7 6 8 8 6 5 3 4 5 4 4 3 4 6 10 8 8 9 10 10 11 11
6 6 5 5 4 3 3 3 4 4 4 3 4 4 3 2 1 2 1 2 2 3 2 3 3 4 4 4 5 4 4 4 3 2 4 9 8 8 9 10 11 11 11
6 6 5 5 4 4 3 2 3 3 3 4 4 3 3 2 1 1 1 1 1 1 2 3 3 3 4 5 5 5 4 4 4 3 4 8 9 9 9 10 10 11 12
6 6 5 5 5 4 3 2 2 2 3 3 3 3 3 2 1 1 1 1 2 2 2 3 3 3 4 4 4 4 5 5 5 5 5 7 10 11 10 11 11 11 12
7 6 5 5 5 4 3 3 2 2 2 2 2 3 3 3 2 2 2 2 2 2 2 3 3 3 4 4 4 4 5 5 5 5 6 6 7 12 13 11 11 12 11
6 6 5 4 5 4 3 2 2 2 2 2 2 3 3 3 3 3 3 2 2 2 2 2 3 3 3 3 3 4 4 4 5 5 5 6 6 6 9 11 10 11 11
6 6 6 4 4 4 4 3 2 2 2 2 2 2 2 3 4 4 3 2 3 2 2 3 1 2 2 3 3 3 3 3 4 4 4 5 4 4 5 7 10 10 10
6 6 6 5 5 4 4 3 2 2 2 3 2 2 3 3 4 4 3 3 3 2 2 2 2 2 2 2 2 2 2 2 3 3 4 3 4 4 4 4 5 8 10
6 6 6 5 5 4 3 3 3 3 2 2 2 2 3 3 3 4 4 3 3 3 3 3 2 2 2 1 1 2 2 2 2 3 3 3 3 3 4 4 4 4 6
8 7 7 6 6 5 4 3 3 2 2 2 2 2 3 3 3 4 4 4 3 2 2 2 2 2 1 0 1 1 1 2 3 3 3 4 3 3 4 5 5 5 6
9 8 7 7 6 5 4 3 3 3 3 2 2 2 2 3 3 3 3 3 2 2 2 2 2 3 2 1 1 1 2 1 2 3 3 4 3 3 4 4 6 6 8
9 8 7 7 6 5 5 4 4 4 3 2 2 1 1 1 2 2 2 2 2 2 1 3 2 2 3 2 2 2 2 2 2 2 3 2 3 4 5 5 5 6 7
9 8 8 7 7 6 6 5 5 4 3 2 2 1 1 1 1 2 2 2 2 2 2 2 2 3 3 3 3 2 3 3 4 4 4 4 4 4 4 5 5 5 6
9 9 9 8 8 7 6 6 6 5 4 3 2 1 2 1 1 1 2 2 2 2 2 3 3 3 3 3 4 4 3 3 3 4 5 5 5 4 5 4 5 5 5
Wind_Direction
110 117 124 128 127 126 127 127 127 127 128 132 133 133 134 134 133 131 130 129 129 127 125 126 125 126 128 127 126 125 126 126 125 122 122 122 122 123 124 132 143 123 118
118 122 130 133 128 127 127 127 127 128 128 130 133 133 134 135 134 133 130 130 128 127 126 126 126 126 126 129 129 129 130 131 131 131 132 131 129 129 131 133 111 111 126
116 118 126 129 126 127 127 127 126 128 129 130 133 133 133 133 133 132 130 131 129 128 128 129 128 129 129 130 131 131 132 133 137 144 160 146 135 137 135 130 121 125 133
117 119 118 122 126 127 128 129 128 128 129 130 133 134 134 134 134 132 132 132 131 131 131 132 132 134 135 134 134 136 137 136 145 171 168 138 136 136 143 140 139 140 140
118 119 119 127 128 127 129 131 129 129 129 130 132 133 135 135 136 135 135 134 135 134 135 135 137 139 139 137 138 139 142 146 164 191 133 129 131 137 149 150 149 149 148
119 122 122 128 127 127 129 130 131 130 130 131 132 134 135 136 137 140 140 140 139 139 139 141 143 144 144 143 145 148 152 165 188 154 136 143 138 144 156 160 158 158 157
117 120 124 125 124 124 127 131 134 134 133 134 134 134 137 139 140 143 146 146 145 144 145 147 149 151 150 148 152 155 161 190 193 156 149 150 136 145 162 170 170 168 166
117 120 124 126 125 126 127 131 130 134 135 135 135 135 138 140 144 145 149 150 151 152 155 156 158 162 164 166 166 168 181 216 186 160 159 149 139 159 174 178 180 178 175
119 120 127 133 134 134 129 127 128 129 133 136 136 137 139 146 150 150 153 154 158 159 162 165 170 173 175 178 178 181 196 233 218 167 165 153 149 171 179 182 183 184 183
120 122 125 129 129 137 134 129 129 132 135 135 138 140 146 155 157 161 165 165 167 167 170 173 178 181 181 184 187 194 208 227 209 186 176 146 156 177 183 185 185 185 189
125 123 120 125 130 134 133 135 142 143 144 148 144 144 161 160 157 166 151 170 175 176 179 182 186 191 194 191 192 200 215 213 195 197 176 135 167 187 191 190 191 192 196
133 127 121 124 127 131 128 135 144 149 146 151 139 146 152 153 166 158 154 183 188 188 192 192 196 199 211 192 187 202 214 203 203 202 158 150 180 195 199 199 198 198 200
133 127 126 123 122 124 127 135 138 140 142 150 146 152 155 167 163 162 160 173 187 192 193 188 199 206 208 203 214 207 213 218 211 198 160 160 186 202 206 206 207 206 207
129 129 128 127 127 126 130 137 145 147 150 154 156 175 166 149 154 140 153 177 188 185 190 210 204 212 226 214 216 218 219 226 227 210 161 165 191 208 216 215 213 211 212
135 135 131 133 138 144 148 169 155 153 160 162 165 175 191 175 149 151 150 202 221 214 208 219 222 212 223 216 219 219 224 223 231 234 189 180 195 209 219 221 219 216 216
142 140 138 144 146 149 157 168 179 169 168 171 175 178 200 207 178 232 217 221 234 234 240 241 233 223 223 221 222 227 232 226 219 226 226 204 201 207 216 222 224 224 220
149 148 147 152 149 151 161 179 179 191 184 180 181 190 206 217 212 229 237 230 233 238 233 236 238 237 225 221 224 231 234 229 222 226 229 235 221 206 209 218 225 226 223
153 153 158 156 153 161 169 191 190 194 195 197 208 208 213 224 225 233 239 234 237 242 251 241 235 236 234 231 230 237 239 225 224 225 232 235 240 235 209 208 220 222 222
162 160 162 162 165 167 172 184 196 206 222 219 221 222 224 235 238 243 241 246 242 239 248 255 243 246 242 244 240 234 243 233 226 225 237 238 233 239 240 206 211 217 220
162 162 167 171 171 176 178 184 201 213 221 223 230 235 242 243 243 251 239 227 241 240 241 238 236 240 253 260 269 272 263 253 236 228 237 234 232 239 240 241 225 210 207
170 169 174 179 173 179 186 199 200 205 217 226 233 233 251 259 250 249 263 233 240 244 245 237 234 235 242 278 290 294 265 233 230 228 240 250 247 241 237 236 243 246 218
182 184 183 185 184 190 188 199 209 221 224 229 249 238 256 259 251 237 238 244 234 237 230 231 225 254 257 158 275 277 255 225 217 236 240 238 253 253 241 236 241 241 255
190 192 192 188 190 197 198 201 197 197 221 217 231 236 266 273 265 267 244 251 246 243 228 232 236 241 244 224 227 269 265 264 280 229 236 243 249 262 261 254 246 241 247
194 193 192 190 193 198 199 206 207 212 221 230 238 232 249 267 265 261 250 240 246 256 242 242 230 239 236 241 219 239 270 290 269 279 247 245 249 255 262 260 255 240 242
195 194 190 189 195 198 202 204 213 224 230 232 223 214 253 243 261 260 249 250 247 258 256 253 240 247 242 247 250 241 241 243 248 262 277 276 263 260 262 261 263 257 249
196 195 190 188 196 198 201 205 212 222 230 238 238 244 240 245 256 271 268 277 274 272 257 244 239 233 247 250 255 249 245 254 264 266 271 277 280 275 261 261 261 259 253
Height
1515 1514 1513 1514 1516 1517 1518 1520 1521 1522 1524 1525 1527 1528 1530 1531 1533 1535 1537 1538 1540 1542 1543 1545 1546 1547 1549 1550 1551 1552 1553 1554 1555 1556 1556 1557 1558 1558 1559 1560 1561 1562 1561
1516 1514 1512 1513 1517 1519 1520 1522 1523 1525 1526 1527 1529 1530 1532 1534 1535 1537 1539 1540 1542 1543 1545 1546 1548 1549 1550 1551 1552 1553 1554 1555 1556 1557 1558 1558 1559 1560 1561 1561 1562 1563 1563
1517 1515 1511 1513 1518 1521 1523 1524 1525 1527 1528 1529 1531 1532 1534 1536 1537 1539 1541 1542 1543 1545 1546 1548 1549 1550 1551 1553 1554 1554 1555 1556 1557 1558 1559 1561 1561 1561 1562 1562 1563 1563 1564
1519 1519 1517 1518 1521 1523 1525 1526 1528 1529 1530 1531 1533 1534 1536 1538 1540 1541 1542 1544 1545 1546 1548 1549 1551 1552 1553 1554 1555 1556 1556 1557 1558 1559 1562 1563 1563 1562 1563 1563 1564 1565 1565
1522 1522 1521 1522 1524 1526 1527 1529 1530 1531 1532 1533 1534 1536 1538 1540 1541 1542 1544 1545 1546 1548 1549 1551 1552 1553 1554 1555 1556 1557 1557 1558 1559 1561 1563 1563 1564 1563 1563 1564 1565 1565 1566
1524 1525 1524 1525 1527 1528 1529 1530 1532 1533 1534 1535 1537 1538 1540 1541 1543 1544 1545 1546 1548 1549 1550 1552 1553 1554 1555 1556 1557 1558 1558 1559 1560 1563 1563 1564 1564 1563 1563 1564 1565 1566 1566
1526 1527 1527 1528 1529 1530 1531 1532 1533 1535 1536 1537 1538 1540 1541 1543 1544 1545 1547 1548 1549 1550 1551 1552 1554 1555 1556 1557 1557 1558 1559 1560 1562 1563 1563 1564 1564 1564 1564 1564 1565 1566 1567
1528 1529 1529 1530 1531 1532 1533 1534 1535 1536 1537 1539 1540 1541 1543 1544 1545 1547 1548 1549 1549 1550 1552 1553 1554 1555 1556 1557 1558 1559 1560 1560 1563 1564 1564 1564 1563 1564 1564 1564 1565 1566 1567
1531 1531 1532 1533 1533 1534 1535 1536 1537 1538 1539 1540 1541 1543 1544 1545 1547 1548 1549 1549 1550 1551 1552 1553 1554 1555 1556 1556 1558 1559 1560 1561 1563 1563 1564 1564 1563 1564 1564 1564 1565 1566 1566
1532 1533 1534 1535 1535 1536 1537 1537 1538 1539 1540 1541 1543 1544 1545 1546 1547 1548 1549 1549 1550 1551 1552 1553 1554 1555 1556 1556 1558 1559 1559 1560 1562 1563 1564 1563 1563 1563 1564 1564 1565 1565 1566
1533 1535 1536 1537 1537 1538 1539 1539 1539 1540 1541 1543 1544 1545 1546 1548 1549 1549 1549 1549 1550 1551 1552 1553 1554 1554 1555 1556 1557 1558 1559 1561 1562 1563 1563 1562 1562 1563 1563 1563 1564 1565 1565
1534 1536 1537 1538 1538 1539 1540 1540 1541 1542 1542 1544 1545 1546 1547 1548 1549 1549 1549 1550 1550 1551 1551 1552 1553 1554 1555 1557 1557 1557 1559 1561 1561 1562 1562 1561 1561 1562 1562 1563 1564 1564 1564
1536 1537 1538 1539 1539 1540 1541 1541 1542 1543 1543 1544 1545 1546 1547 1548 1549 1549 1550 1550 1550 1551 1551 1551 1552 1554 1555 1555 1556 1558 1559 1560 1561 1561 1561 1560 1561 1561 1561 1562 1563 1563 1563
1536 1537 1538 1539 1539 1540 1541 1542 1543 1544 1544 1545 1546 1546 1547 1548 1548 1549 1549 1549 1550 1550 1550 1551 1551 1552 1553 1554 1555 1556 1557 1558 1559 1560 1559 1559 1559 1560 1560 1561 1561 1562 1562
1537 1538 1539 1539 1539 1540 1541 1542 1544 1544 1545 1546 1546 1546 1547 1548 1548 1549 1549 1549 1550 1550 1550 1550 1550 1551 1551 1552 1554 1555 1556 1556 1557 1558 1558 1558 1558 1558 1559 1559 1560 1560 1560
1537 1538 1539 1540 1540 1541 1541 1542 1543 1544 1545 1546 1546 1547 1547 1548 1548 1548 1548 1548 1549 1549 1549 1549 1549 1550 1550 1551 1552 1553 1553 1554 1555 1555 1556 1556 1556 1557 1557 1557 1558 1558 1558
1537 1538 1539 1540 1540 1541 1542 1543 1544 1544 1545 1546 1546 1546 1546 1547 1547 1547 1547 1548 1548 1548 1548 1548 1548 1548 1549 1549 1550 1550 1551 1552 1553 1553 1554 1555 1555 1555 1555 1555 1555 1556 1556
1537 1538 1539 1540 1541 1541 1542 1542 1544 1544 1545 1545 1546 1546 1546 1546 1546 1546 1547 1547 1546 1547 1547 1547 1547 1547 1547 1548 1548 1549 1550 1550 1550 1551 1552 1553 1553 1554 1553 1553 1553 1553 1553
1536 1537 1538 1540 1540 1541 1542 1542 1543 1543 1544 1545 1545 1545 1545 1545 1545 1545 1545 1545 1545 1546 1546 1546 1546 1546 1546 1546 1547 1548 1548 1549 1549 1550 1550 1551 1551 1551 1551 1551 1550 1550 1550
1535 1536 1537 1539 1540 1540 1541 1542 1542 1543 1544 1544 1544 1544 1544 1544 1543 1543 1544 1543 1544 1545 1544 1545 1545 1545 1545 1545 1546 1546 1547 1547 1548 1548 1549 1549 1549 1549 1549 1549 1549 1548 1547
1534 1535 1536 1538 1539 1539 1540 1541 1542 1542 1543 1543 1543 1543 1542 1542 1542 1541 1542 1542 1542 1543 1543 1543 1544 1544 1544 1544 1544 1545 1545 1546 1546 1547 1547 1547 1547 1547 1546 1546 1546 1546 1546
1532 1533 1534 1536 1537 1538 1539 1540 1540 1541 1542 1542 1542 1541 1541 1541 1540 1540 1539 1540 1541 1541 1541 1541 1542 1542 1543 1542 1543 1544 1544 1546 1544 1545 1545 1545 1545 1545 1544 1544 1544 1543 1543
1530 1531 1533 1534 1535 1537 1538 1539 1540 1540 1541 1541 1541 1540 1540 1539 1538 1537 1537 1538 1538 1539 1540 1539 1540 1541 1541 1541 1542 1543 1543 1542 1543 1543 1543 1542 1542 1542 1542 1542 1541 1540 1540
1528 1530 1531 1532 1533 1535 1536 1537 1538 1539 1539 1539 1539 1539 1539 1538 1537 1536 1536 1536 1536 1537 1538 1538 1538 1538 1539 1540 1540 1540 1541 1541 1541 1541 1541 1541 1540 1539 1539 1539 1539 1538 1538
1526 1528 1529 1530 1531 1533 1534 1535 1536 1537 1538 1538 1538 1538 1538 1537 1536 1536 1535 1535 1535 1536 1536 1536 1536 1536 1537 1537 1538 1538 1539 1539 1539 1539 1538 1538 1538 1537 1537 1536 1536 1536 1535
1524 1526 1527 1528 1529 1531 1532 1533 1534 1535 1536 1536 1536 1537 1537 1537 1536 1535 1535 1534 1533 1534 1533 1533 1534 1534 1535 1535 1535 1536 1536 1536 1536 1537 1536 1535 1534 1534 1534 1533 1533 1532 1532